Radiation Dose at Monitoring Post of Fukushima Daini Nuclear Power Station
Date,Time,MP-1(microSv/h),MP-2(microSv/h),MP-3(microSv/h),MP-4(microSv/h),MP-5(microSv/h),MP-6(microSv/h),MP-7(microSv/h),Wind Direction,Wind Velocity(m/s),Rain
2013/02/10,00:00,1.1,0.7,1.1,1.0,0.9,0.5,0.4,west-northwest,10.1,No
2013/02/10,00:10,1.1,0.7,1.1,1.0,0.9,0.5,0.4,west-northwest,10.6,No
2013/02/10,00:20,1.1,0.7,1.1,1.0,0.9,0.5,0.4,west-northwest,9.8,No
2013/02/10,00:30,1.1,0.7,1.1,1.0,0.9,0.5,0.4,west-northwest,9.5,No
2013/02/10,00:40,1.1,0.7,1.1,1.0,0.9,0.5,0.4,west-northwest,9.8,No
2013/02/10,00:50,1.1,0.7,1.1,1.0,0.9,0.5,0.4,west-northwest,9.6,No
2013/02/10,01:00,1.1,0.7,1.1,1.0,0.9,0.5,0.4,northwest,8.2,No
2013/02/10,01:10,1.1,0.7,1.1,1.0,0.9,0.5,0.4,west-northwest,9.0,No
2013/02/10,01:20,1.1,0.7,1.1,1.0,0.9,0.5,0.4,west-northwest,8.8,No
2013/02/10,01:30,1.1,0.7,1.1,1.0,0.9,0.5,0.4,west-northwest,10.1,No
2013/02/10,01:40,1.1,0.7,1.1,1.0,0.9,0.5,0.4,west-northwest,11.1,No
2013/02/10,01:50,1.1,0.7,1.1,1.0,0.9,0.5,0.4,west-northwest,10.6,No
2013/02/10,02:00,1.1,0.7,1.1,1.0,0.9,0.5,0.4,west,11.1,No
2013/02/10,02:10,1.1,0.7,1.1,1.0,0.9,0.5,0.4,west-northwest,10.6,No
2013/02/10,02:20,1.1,0.7,1.1,1.0,0.9,0.5,0.4,west-northwest,11.8,No
2013/02/10,02:30,1.1,0.7,1.1,1.0,0.9,0.5,0.4,west-northwest,12.5,No
2013/02/10,02:40,1.1,0.7,1.1,1.0,0.9,0.5,0.4,west-northwest,10.7,No
2013/02/10,02:50,1.1,0.7,1.1,1.0,0.9,0.5,0.4,west-northwest,9.5,No
2013/02/10,03:00,1.1,0.7,1.1,1.0,0.9,0.5,0.4,west-northwest,7.6,No
2013/02/10,03:10,1.1,0.7,1.1,1.0,0.9,0.5,0.4,west,7.1,No
2013/02/10,03:20,1.1,0.7,1.1,1.0,0.9,0.5,0.4,west-northwest,7.6,No
2013/02/10,03:30,1.1,0.7,1.1,1.0,0.9,0.5,0.4,west,6.9,No
2013/02/10,03:40,1.1,0.7,1.1,1.0,0.9,0.5,0.4,west,7.3,No
2013/02/10,03:50,1.1,0.7,1.1,1.0,0.9,0.5,0.4,west,6.7,No
2013/02/10,04:00,1.1,0.7,1.1,1.0,0.9,0.5,0.4,west,6.7,No
2013/02/10,04:10,1.1,0.7,1.1,1.0,0.9,0.5,0.4,west-northwest,7.2,No
2013/02/10,04:20,1.1,0.7,1.1,1.0,0.9,0.5,0.4,west-northwest,7.0,No
2013/02/10,04:30,1.1,0.7,1.1,1.0,0.9,0.5,0.4,west-northwest,7.3,No
2013/02/10,04:40,1.1,0.7,1.1,1.0,0.9,0.5,0.4,west-northwest,6.6,No
2013/02/10,04:50,1.1,0.7,1.1,1.0,0.9,0.5,0.4,west-northwest,7.1,No
2013/02/10,05:00,1.1,0.7,1.1,1.0,0.9,0.5,0.4,west-northwest,7.0,No
2013/02/10,05:10,1.1,0.7,1.1,1.0,0.9,0.5,0.4,west-northwest,6.6,No
2013/02/10,05:20,1.1,0.7,1.1,1.0,0.9,0.5,0.4,west-northwest,7.0,No
2013/02/10,05:30,1.1,0.7,1.1,1.0,0.9,0.5,0.4,west-northwest,6.2,No
2013/02/10,05:40,1.1,0.7,1.1,1.0,0.9,0.5,0.4,west-northwest,6.1,No
2013/02/10,05:50,1.1,0.7,1.1,1.0,0.9,0.5,0.4,west-northwest,6.2,No
2013/02/10,06:00,1.1,0.7,1.1,1.0,0.9,0.5,0.4,west-northwest,4.6,No
2013/02/10,06:10,1.1,0.7,1.1,1.0,0.9,0.5,0.4,west-northwest,3.1,No
2013/02/10,06:20,1.1,0.7,1.1,1.0,0.9,0.5,0.4,northwest,3.2,No
2013/02/10,06:30,1.1,0.7,1.1,1.0,0.9,0.5,0.4,northwest,3.3,No
2013/02/10,06:40,1.1,0.7,1.1,1.0,0.9,0.5,0.4,northwest,3.0,No
2013/02/10,06:50,1.1,0.7,1.1,1.0,0.9,0.5,0.4,west-northwest,3.7,No
2013/02/10,07:00,1.1,0.7,1.1,1.0,0.9,0.5,0.4,northwest,2.7,No
2013/02/10,07:10,1.1,0.7,1.1,1.0,0.9,0.5,0.4,west-northwest,3.1,No
2013/02/10,07:20,1.1,0.7,1.1,1.0,0.9,0.5,0.4,west-northwest,2.1,No
2013/02/10,07:30,1.1,0.7,1.1,1.0,0.9,0.5,0.4,west-northwest,2.6,No
2013/02/10,07:40,1.1,0.7,1.1,1.0,0.9,0.5,0.4,west-northwest,3.9,No
2013/02/10,07:50,1.1,0.7,1.1,1.0,0.9,0.5,0.4,west-northwest,4.2,No
2013/02/10,08:00,1.1,0.7,1.1,1.0,0.9,0.5,0.4,west-northwest,4.4,No
2013/02/10,08:10,1.1,0.7,1.1,1.0,0.9,0.5,0.4,west-northwest,4.7,No
2013/02/10,08:20,1.1,0.7,1.1,1.0,0.9,0.5,0.4,west,3.5,No
2013/02/10,08:30,1.1,0.7,1.1,1.0,0.9,0.5,0.4,-,-,No
2013/02/10,08:40,1.1,0.7,1.1,1.0,0.9,0.5,0.4,-,-,No
2013/02/10,08:50,1.1,0.7,1.1,1.0,0.9,0.5,0.4,-,-,No
2013/02/10,09:00,1.1,0.7,1.1,1.0,0.9,0.5,0.4,east,0.7,No
2013/02/10,09:10,1.1,0.7,1.1,1.0,0.9,0.5,0.4,northeast,1.1,No
2013/02/10,09:20,1.1,0.7,1.1,1.0,0.9,0.5,0.4,-,-,No
2013/02/10,09:30,1.1,0.7,1.1,1.0,0.9,0.5,0.4,west,0.8,No
2013/02/10,09:40,1.1,0.7,1.1,1.0,0.9,0.5,0.4,west-northwest,0.6,No
2013/02/10,09:50,1.1,0.7,1.1,1.0,0.9,0.5,0.4,west,1.8,No
2013/02/10,10:00,1.1,0.7,1.1,1.0,0.9,0.5,0.4,west-southwest,1.4,No
2013/02/10,10:10,1.1,0.7,1.1,1.0,0.9,0.5,0.4,southwest,4.0,No
2013/02/10,10:20,1.1,0.7,1.1,1.0,0.9,0.5,0.4,southwest,5.2,No
2013/02/10,10:30,1.1,0.7,1.1,1.0,0.9,0.5,0.4,southwest,4.0,No
2013/02/10,10:40,1.1,0.7,1.1,1.0,0.9,0.5,0.4,south-southwest,2.9,No
2013/02/10,10:50,1.1,0.7,1.1,1.0,0.9,0.5,0.4,southeast,1.2,No
2013/02/10,11:00,1.1,0.7,1.1,1.0,0.9,0.5,0.4,east-northeast,3.0,No
2013/02/10,11:10,1.1,0.7,1.1,1.0,0.9,0.5,0.4,east-northeast,4.3,No
2013/02/10,11:20,1.1,0.7,1.1,1.0,0.9,0.5,0.4,northeast,5.7,No
2013/02/10,11:30,1.1,0.7,1.1,1.0,0.9,0.5,0.4,northeast,4.4,No
2013/02/10,11:40,1.1,0.7,1.1,1.0,0.9,0.5,0.4,east,4.4,No
2013/02/10,11:50,1.1,0.7,1.1,1.0,0.9,0.5,0.4,east,4.7,No
2013/02/10,12:00,1.1,0.7,1.1,1.0,0.9,0.5,0.4,east,4.5,No
2013/02/10,12:10,1.1,0.7,1.1,1.0,0.9,0.5,0.4,east,3.5,No
2013/02/10,12:20,1.1,0.7,1.1,1.0,0.9,0.5,0.4,east-southeast,3.2,No
2013/02/10,12:30,1.1,0.7,1.1,1.0,0.9,0.5,0.4,east,2.9,No
2013/02/10,12:40,1.1,0.7,1.1,1.0,0.9,0.5,0.4,east-southeast,2.0,No
2013/02/10,12:50,1.1,0.7,1.1,1.0,0.9,0.5,0.4,east-southeast,1.9,No
2013/02/10,13:00,1.1,0.7,1.1,1.0,0.9,0.5,0.4,east-southeast,2.5,No
2013/02/10,13:10,1.1,0.7,1.1,1.0,0.9,0.5,0.4,east-northeast,1.9,No
2013/02/10,13:20,1.1,0.7,1.1,1.0,0.9,0.5,0.4,east-southeast,2.6,No
2013/02/10,13:30,1.1,0.7,1.1,1.0,0.9,0.5,0.4,southeast,4.2,No
2013/02/10,13:40,1.1,0.7,1.1,1.0,0.9,0.5,0.4,east-southeast,4.4,No
2013/02/10,13:50,1.1,0.7,1.1,1.0,0.9,0.5,0.4,east-southeast,4.7,No
2013/02/10,14:00,1.1,0.7,1.1,1.0,0.9,0.5,0.4,east-southeast,4.0,No
2013/02/10,14:10,1.1,0.7,1.1,1.0,0.9,0.5,0.4,east-southeast,4.6,No
2013/02/10,14:20,1.1,0.7,1.1,1.0,0.9,0.5,0.4,east-southeast,3.9,No
2013/02/10,14:30,1.1,0.7,1.1,1.0,0.9,0.5,0.4,east-southeast,3.2,No
2013/02/10,14:40,1.1,0.7,1.1,1.0,0.9,0.5,0.4,east-southeast,2.7,No
2013/02/10,14:50,1.1,0.7,1.1,1.0,0.9,0.5,0.4,southeast,3.7,No
2013/02/10,15:00,1.1,0.7,1.1,1.0,0.9,0.5,0.4,east-southeast,3.3,No
2013/02/10,15:10,1.1,0.7,1.1,1.0,0.9,0.5,0.4,east-southeast,3.7,No
2013/02/10,15:20,1.1,0.7,1.1,1.0,0.9,0.5,0.4,southeast,3.4,No
2013/02/10,15:30,1.1,0.7,1.1,1.0,0.9,0.5,0.4,southeast,4.2,No
2013/02/10,15:40,1.1,0.7,1.1,1.0,0.9,0.5,0.4,east-southeast,3.5,No
2013/02/10,15:50,1.1,0.7,1.1,1.0,0.9,0.5,0.4,east,2.4,No
2013/02/10,16:00,1.1,0.7,1.1,1.0,0.9,0.5,0.4,south,1.4,No
2013/02/10,16:10,1.1,0.7,1.1,1.0,0.9,0.5,0.4,west-northwest,1.1,No
2013/02/10,16:20,1.1,0.7,1.1,1.0,0.9,0.5,0.4,west,1.6,No
2013/02/10,16:30,1.1,0.7,1.1,1.0,0.9,0.5,0.4,west-northwest,4.9,No
2013/02/10,16:40,1.1,0.7,1.1,1.0,0.9,0.5,0.4,west-northwest,8.8,No
2013/02/10,16:50,1.1,0.7,1.1,1.0,0.9,0.5,0.4,west-northwest,9.0,No
2013/02/10,17:00,1.1,0.7,1.1,1.0,0.9,0.5,0.4,west-northwest,7.7,No
2013/02/10,17:10,1.1,0.7,1.1,1.0,0.9,0.5,0.4,northwest,10.6,No
2013/02/10,17:20,1.1,0.7,1.1,1.0,0.9,0.5,0.4,west-northwest,11.4,No
2013/02/10,17:30,1.1,0.7,1.1,1.0,0.9,0.5,0.4,west-northwest,12.5,No
2013/02/10,17:40,1.1,0.7,1.1,1.0,0.9,0.5,0.4,west-northwest,11.4,No
2013/02/10,17:50,1.1,0.7,1.1,1.0,0.9,0.5,0.4,west-northwest,11.7,No
2013/02/10,18:00,1.1,0.7,1.1,1.0,0.9,0.5,0.4,west-northwest,10.1,No
2013/02/10,18:10,1.1,0.7,1.1,1.0,0.9,0.5,0.4,west-northwest,11.1,No
2013/02/10,18:20,1.1,0.7,1.1,1.0,0.9,0.5,0.4,west-northwest,9.8,No
2013/02/10,18:30,1.1,0.7,1.1,1.0,0.9,0.5,0.4,west-northwest,10.0,No
2013/02/10,18:40,1.1,0.7,1.1,1.0,0.9,0.5,0.4,west-northwest,10.0,No
2013/02/10,18:50,1.1,0.7,1.1,1.0,0.9,0.5,0.4,west-northwest,9.5,No
2013/02/10,19:00,1.1,0.7,1.1,1.0,0.9,0.5,0.4,west-northwest,10.3,No
2013/02/10,19:10,1.1,0.7,1.1,1.0,0.9,0.5,0.4,west-northwest,9.3,No
2013/02/10,19:20,1.1,0.7,1.1,1.0,0.9,0.5,0.4,west-northwest,9.5,No
2013/02/10,19:30,1.1,0.7,1.1,1.0,0.9,0.5,0.4,west-northwest,10.6,No
2013/02/10,19:40,1.1,0.7,1.1,1.0,0.9,0.5,0.4,west-northwest,10.6,No
2013/02/10,19:50,1.1,0.7,1.1,1.0,0.9,0.5,0.4,west-northwest,7.7,No
2013/02/10,20:00,1.1,0.7,1.1,1.0,0.9,0.5,0.4,west,5.7,No
2013/02/10,20:10,1.1,0.7,1.1,1.0,0.9,0.5,0.4,west-southwest,1.0,No
2013/02/10,20:20,1.1,0.7,1.1,1.0,0.9,0.5,0.4,east-northeast,1.3,No
2013/02/10,20:30,1.1,0.7,1.1,1.0,0.9,0.5,0.4,southwest,2.3,No
2013/02/10,20:40,1.1,0.7,1.1,1.0,0.9,0.5,0.4,west-southwest,2.4,No
2013/02/10,20:50,1.1,0.7,1.1,1.0,0.9,0.5,0.4,south,1.6,No
2013/02/10,21:00,1.1,0.7,1.1,1.0,0.9,0.5,0.4,south-southwest,1.8,No
2013/02/10,21:10,1.1,0.7,1.1,1.0,0.9,0.5,0.4,south-southwest,2.4,No
2013/02/10,21:20,1.1,0.7,1.1,1.0,0.9,0.5,0.4,southwest,2.9,No
2013/02/10,21:30,1.1,0.7,1.1,1.0,0.9,0.5,0.4,west-southwest,4.6,No
2013/02/10,21:40,1.1,0.7,1.1,1.0,0.9,0.5,0.4,west-northwest,2.6,No
2013/02/10,21:50,1.1,0.7,1.1,1.0,0.9,0.5,0.4,west,1.0,No
2013/02/10,22:00,1.1,0.7,1.1,1.0,0.9,0.5,0.4,north,1.1,No
2013/02/10,22:10,1.1,0.7,1.1,1.0,0.9,0.5,0.4,north-northwest,1.9,No
2013/02/10,22:20,1.1,0.7,1.1,1.0,0.9,0.5,0.4,northwest,3.0,No
2013/02/10,22:30,1.1,0.7,1.1,1.0,0.9,0.5,0.4,west-northwest,2.9,No
2013/02/10,22:40,1.1,0.7,1.1,1.0,0.9,0.5,0.4,west-northwest,4.2,No
2013/02/10,22:50,1.1,0.7,1.1,1.0,0.9,0.5,0.4,west,3.9,No
2013/02/10,23:00,1.1,0.7,1.1,1.0,0.9,0.5,0.4,west-northwest,3.4,No
2013/02/10,23:10,1.1,0.7,1.1,1.0,0.9,0.5,0.4,west-northwest,5.1,Yes
2013/02/10,23:20,1.1,0.7,1.1,1.0,0.9,0.5,0.4,west-northwest,7.7,Yes
2013/02/10,23:30,1.1,0.7,1.1,1.0,0.9,0.5,0.4,west-northwest,9.0,Yes
2013/02/10,23:40,1.1,0.7,1.1,1.0,0.9,0.5,0.4,west-northwest,9.2,No
2013/02/10,23:50,1.1,0.7,1.1,1.0,0.9,0.5,0.4,west-northwest,8.8,No
